WX1N Weather Reports


Display with metric or nautical units.
time (UTC)temp
F
wind
direction
speed
MPH
gust
MPH
rain 1hr
in
rain 24hr
in
rain mn
in
humidity
%
barometer
mb
20200401045656 30 0 0.0 0.0 0.00 0.03 0.00 92 1012.6
20200401045156 30 0 0.0 0.0 0.00 0.03 0.00 92 1012.6
20200401044656 30 0 0.0 0.0 0.00 0.03 0.00 91 1012.7
20200401044155 30 0 0.0 0.0 0.00 0.03 0.00 91 1012.7
20200401042655 30 161 0.0 1.0 0.00 0.03 0.00 91 1013.0
20200401041656 31 161 0.0 2.0 0.00 0.03 0.00 91 1013.0
20200401041155 31 171 1.0 4.0 0.00 0.03 0.00 91 1013.0
20200401040656 31 182 1.0 5.0 0.00 0.03 0.00 91 1013.1
20200401040156 31 181 1.0 5.0 0.00 0.03 0.00 91 1013.2
20200401035156 31 117 0.0 4.0 0.00 0.03 0.03 92 1013.3
20200401034655 31 0 0.0 0.0 0.00 0.03 0.03 92 1013.3
20200401034155 31 0 0.0 0.0 0.00 0.03 0.03 92 1013.3
20200401033156 32 0 0.0 0.0 0.00 0.03 0.03 92 1013.4
20200401032655 32 0 0.0 0.0 0.00 0.03 0.03 92 1013.4
20200401032156 32 0 0.0 0.0 0.00 0.03 0.03 92 1013.4
20200401025655 33 48 1.0 3.0 0.00 0.03 0.03 91 1013.3
20200401025155 33 53 2.0 3.0 0.00 0.03 0.03 91 1013.2
20200401022655 34 72 2.0 4.0 0.00 0.03 0.03 91 1013.3
20200401020155 34 150 2.0 6.0 0.00 0.03 0.03 90 1013.4
20200401015655 34 143 1.0 6.0 0.00 0.03 0.03 90 1013.3
20200401015155 34 0 0.0 0.0 0.00 0.03 0.03 90 1013.2
20200401014655 34 0 0.0 0.0 0.00 0.03 0.03 91 1013.2
20200401014155 34 0 0.0 0.0 0.00 0.03 0.03 91 1013.2
20200401013655 34 0 0.0 0.0 0.00 0.03 0.03 91 1013.3
20200401013155 34 0 0.0 0.0 0.00 0.03 0.03 91 1013.3
20200401012655 34 0 0.0 0.0 0.00 0.03 0.03 91 1013.4
20200401012155 34 0 0.0 0.0 0.00 0.03 0.03 90 1013.5
20200401011655 34 0 0.0 0.0 0.00 0.03 0.03 90 1013.4
20200401010655 34 0 0.0 0.0 0.00 0.03 0.03 89 1013.5
20200401005655 34 0 0.0 0.0 0.00 0.03 0.03 89 1013.6
20200401005155 34 0 0.0 0.0 0.00 0.03 0.03 88 1013.6
20200401003655 35 0 0.0 0.0 0.00 0.03 0.03 87 1013.6
20200401003155 35 0 0.0 0.0 0.00 0.03 0.03 87 1013.5
20200401002655 35 0 0.0 0.0 0.00 0.03 0.03 87 1013.5
20200401002155 35 0 0.0 0.0 0.00 0.03 0.03 87 1013.4
20200401001655 36 0 0.0 0.0 0.00 0.03 0.03 86 1013.4
20200401001154 36 0 0.0 0.0 0.00 0.03 0.03 85 1013.4
20200401000655 36 0 0.0 0.0 0.00 0.03 0.03 85 1013.4
20200331235654 36 0 0.0 0.0 0.00 0.03 0.03 84 1013.2
20200331235154 36 0 0.0 0.0 0.00 0.03 0.03 84 1013.1
20200331234154 37 0 0.0 0.0 0.00 0.03 0.03 83 1013.2
20200331233155 38 0 0.0 0.0 0.00 0.03 0.03 82 1013.1
20200331232654 38 0 0.0 0.0 0.00 0.03 0.03 82 1013.2
20200331232154 38 0 0.0 0.0 0.00 0.03 0.03 81 1013.1
20200331231655 37 0 0.0 0.0 0.00 0.03 0.03 82 1013.2
20200331231155 38 0 0.0 0.0 0.00 0.03 0.03 82 1013.1
20200331230154 38 0 0.0 0.0 0.00 0.04 0.03 83 1013.3
20200331225654 38 0 0.0 0.0 0.00 0.04 0.03 82 1013.2
20200331225155 38 0 0.0 0.0 0.00 0.04 0.03 83 1013.2
20200331224154 38 0 0.0 0.0 0.00 0.04 0.03 84 1013.2
20200331223154 39 0 0.0 0.0 0.00 0.05 0.03 83 1013.3
20200331222154 39 0 0.0 0.0 0.00 0.05 0.03 86 1013.5
20200331221654 39 0 0.0 0.0 0.00 0.05 0.03 81 1013.4
20200331221154 39 0 0.0 0.0 0.00 0.05 0.03 80 1013.4
20200331220654 39 0 0.0 0.0 0.00 0.05 0.03 81 1013.4
20200331220154 39 0 0.0 0.0 0.00 0.05 0.03 82 1013.4
20200331215654 39 280 0.0 1.0 0.00 0.05 0.03 82 1013.5
20200331214654 39 280 0.0 2.0 0.00 0.06 0.03 84 1013.6
20200331213654 39 280 0.0 2.0 0.00 0.06 0.03 86 1013.6
20200331213154 39 280 0.0 2.0 0.00 0.06 0.03 87 1013.7
20200331212154 39 0 0.0 0.0 0.00 0.07 0.03 85 1013.9
20200331211653 39 0 0.0 0.0 0.00 0.07 0.03 84 1013.9
20200331211154 39 280 0.0 1.0 0.00 0.07 0.03 86 1013.9
20200331210654 39 280 1.0 2.0 0.00 0.07 0.03 84 1014.0
20200331210154 39 280 1.0 2.0 0.00 0.07 0.03 84 1014.0
20200331205654 39 280 1.0 2.0 0.00 0.07 0.03 83 1013.9
20200331204654 39 280 0.0 1.0 0.00 0.08 0.03 85 1014.0
20200331204154 39 280 1.0 2.0 0.00 0.08 0.03 84 1014.0
20200331203653 39 280 1.0 2.0 0.00 0.08 0.03 83 1014.1
20200331203154 39 283 1.0 4.0 0.00 0.08 0.03 81 1014.3
20200331202153 39 17 1.0 3.0 0.00 0.09 0.03 85 1014.3
20200331201654 39 66 1.0 2.0 0.00 0.09 0.03 84 1014.2
20200331201154 39 66 1.0 3.0 0.00 0.10 0.03 83 1014.0
20200331195654 38 331 1.0 2.0 0.00 0.12 0.03 85 1014.0
20200331194154 38 331 1.0 2.0 0.00 0.14 0.03 85 1014.2
20200331193153 38 332 0.0 1.0 0.00 0.15 0.03 86 1014.1
20200331192653 38 332 0.0 2.0 0.00 0.16 0.03 85 1014.1
20200331191654 38 341 1.0 3.0 0.00 0.17 0.03 85 1014.2
20200331191153 38 42 2.0 4.0 0.00 0.18 0.03 86 1014.2
20200331190653 38 64 2.0 7.0 0.00 0.18 0.03 89 1014.2
20200331190153 38 72 1.0 7.0 0.00 0.19 0.03 89 1014.2
20200331185653 38 72 1.0 4.0 0.00 0.19 0.03 88 1014.2
20200331184654 37 65 2.0 4.0 0.00 0.19 0.03 89 1014.2
20200331183153 37 24 1.0 4.0 0.00 0.19 0.03 87 1014.4
20200331182153 36 356 3.0 6.0 0.00 0.19 0.03 90 1014.6
20200331181653 36 334 2.0 5.0 0.00 0.19 0.03 90 1014.6
20200331181154 36 319 2.0 4.0 0.00 0.19 0.03 90 1014.7
20200331180654 36 341 2.0 5.0 0.00 0.19 0.03 90 1014.8
20200331180153 36 349 2.0 5.0 0.01 0.19 0.03 91 1014.8
20200331175653 36 349 2.0 6.0 0.01 0.19 0.03 91 1014.8
20200331174654 36 22 2.0 7.0 0.01 0.19 0.03 93 1014.9
20200331174153 36 61 3.0 7.0 0.01 0.19 0.03 94 1015.0
20200331173653 35 49 2.0 6.0 0.01 0.19 0.03 94 1015.0
20200331173153 35 22 2.0 3.0 0.01 0.19 0.03 94 1015.0
20200331171654 35 358 2.0 7.0 0.01 0.19 0.03 93 1014.9
20200331165153 35 49 3.0 6.0 0.01 0.18 0.02 94 1015.1
20200331164653 35 6 2.0 4.0 0.01 0.18 0.02 93 1015.2
20200331164153 35 22 2.0 4.0 0.01 0.18 0.02 92 1015.3
20200331162153 35 56 1.0 4.0 0.01 0.18 0.02 94 1015.5
20200331161653 34 57 1.0 3.0 0.01 0.18 0.02 94 1015.5
20200331160152 33 56 2.0 4.0 0.00 0.17 0.01 93 1015.8
20200331154652 33 55 1.0 4.0 0.00 0.17 0.01 94 1016.0
20200331154152 33 55 1.0 3.0 0.00 0.17 0.01 94 1016.1
20200331153153 33 54 1.0 4.0 0.00 0.17 0.01 93 1016.1
20200331152153 33 54 3.0 6.0 0.00 0.17 0.01 93 1016.3
20200331151152 33 52 2.0 5.0 0.00 0.17 0.01 94 1016.4
20200331150652 33 52 1.0 4.0 0.00 0.17 0.01 94 1016.4
20200331150153 33 52 1.0 4.0 0.00 0.17 0.01 94 1016.4
20200331145652 33 0 0.0 0.0 0.00 0.17 0.01 94 1016.4
20200331144653 33 0 0.0 0.0 0.01 0.17 0.01 94 1016.6
20200331144152 33 51 0.0 2.0 0.01 0.17 0.01 94 1016.7
20200331143652 33 51 1.0 3.0 0.01 0.17 0.01 94 1016.8
20200331142652 32 51 1.0 3.0 0.01 0.17 0.01 94 1016.8
20200331141652 32 50 0.0 3.0 0.01 0.17 0.01 94 1016.9
20200331141152 32 50 1.0 3.0 0.01 0.17 0.01 94 1017.0
20200331135652 32 49 0.0 1.0 0.01 0.17 0.01 94 1017.0
20200331135152 32 49 0.0 1.0 0.00 0.16 0.00 95 1016.9
20200331134652 32 0 0.0 0.0 0.00 0.16 0.00 95 1017.0
20200331133652 32 0 0.0 0.0 0.00 0.16 0.00 95 1016.9
20200331132651 32 0 0.0 0.0 0.00 0.16 0.00 95 1017.0
20200331131652 32 68 1.0 3.0 0.00 0.16 0.00 96 1017.0
20200331131151 32 69 1.0 4.0 0.00 0.16 0.00 96 1017.1
20200331130654 32 71 1.0 4.0 0.00 0.16 0.00 96 1017.1
20200331130152 32 76 0.0 3.0 0.00 0.16 0.00 96 1017.0
20200331125151 31 65 0.0 3.0 0.00 0.16 0.00 96 1017.0
20200331124652 31 66 0.0 3.0 0.00 0.16 0.00 96 1017.0
20200331123651 31 61 0.0 3.0 0.00 0.16 0.00 96 1017.1
20200331123152 30 62 0.0 1.0 0.00 0.16 0.00 96 1017.1
20200331122151 30 0 0.0 0.0 0.00 0.16 0.00 96 1017.1
20200331121652 30 0 0.0 0.0 0.00 0.16 0.00 96 1017.2
20200331121151 30 62 0.0 1.0 0.00 0.16 0.00 96 1017.1
20200331120651 30 62 0.0 1.0 0.00 0.16 0.00 96 1017.0
20200331120152 30 61 0.0 2.0 0.00 0.16 0.00 96 1017.1
20200331115151 30 61 0.0 3.0 0.00 0.16 0.00 96 1017.0
20200331114652 30 61 0.0 3.0 0.00 0.16 0.00 96 1016.9
20200331114152 30 61 0.0 2.0 0.00 0.16 0.00 96 1017.0
20200331113151 30 61 0.0 2.0 0.00 0.16 0.00 96 1017.0
20200331112151 29 58 0.0 3.0 0.00 0.16 0.00 96 1016.9
20200331111651 29 57 0.0 2.0 0.00 0.16 0.00 96 1016.9
20200331110151 29 57 0.0 3.0 0.00 0.16 0.00 96 1016.8
20200331105652 29 58 0.0 1.0 0.00 0.16 0.00 96 1016.8
20200331104651 29 0 0.0 0.0 0.00 0.16 0.00 96 1016.8
20200331104151 29 0 0.0 0.0 0.00 0.16 0.00 96 1016.7
20200331103651 29 58 0.0 1.0 0.00 0.16 0.00 96 1016.7
20200331103151 29 57 0.0 3.0 0.00 0.16 0.00 96 1016.7
20200331102651 29 57 1.0 3.0 0.00 0.16 0.00 96 1016.6
20200331101651 30 59 0.0 2.0 0.00 0.16 0.00 96 1016.5
20200331100651 30 62 1.0 3.0 0.00 0.16 0.00 96 1016.5
20200331100151 30 59 1.0 3.0 0.00 0.16 0.00 96 1016.5
20200331094651 30 0 0.0 0.0 0.00 0.16 0.00 96 1016.4
20200331094151 30 0 0.0 0.0 0.00 0.16 0.00 96 1016.5
20200331093651 30 0 0.0 0.0 0.00 0.16 0.00 96 1016.4
20200331093151 30 0 0.0 0.0 0.00 0.16 0.00 96 1016.4
20200331092651 30 0 0.0 0.0 0.00 0.16 0.00 96 1016.4
20200331091650 30 53 1.0 5.0 0.00 0.16 0.00 96 1016.4
20200331091151 30 52 1.0 5.0 0.00 0.16 0.00 96 1016.4
20200331090651 30 46 1.0 4.0 0.00 0.16 0.00 96 1016.3
20200331090151 30 49 1.0 4.0 0.00 0.16 0.00 96 1016.2
20200331085651 30 52 1.0 4.0 0.00 0.16 0.00 96 1016.3
20200331085151 30 52 1.0 4.0 0.00 0.16 0.00 96 1016.3
20200331084151 30 61 1.0 3.0 0.00 0.16 0.00 96 1016.3
20200331083651 30 60 0.0 2.0 0.00 0.16 0.00 96 1016.3
20200331083150 30 58 1.0 2.0 0.00 0.16 0.00 96 1016.3
20200331082651 30 53 1.0 3.0 0.00 0.16 0.00 96 1016.3
20200331081650 30 53 1.0 3.0 0.00 0.16 0.00 96 1016.3
20200331081151 30 47 0.0 3.0 0.00 0.16 0.00 96 1016.3
20200331080150 30 0 0.0 0.0 0.00 0.16 0.00 96 1016.2
20200331075651 30 0 0.0 0.0 0.00 0.16 0.00 96 1016.1
20200331074650 30 0 0.0 0.0 0.00 0.16 0.00 96 1016.3
20200331074151 30 0 0.0 0.0 0.00 0.16 0.00 96 1016.3
20200331073651 30 0 0.0 0.0 0.00 0.16 0.00 96 1016.3
20200331073150 30 52 1.0 4.0 0.00 0.16 0.00 96 1016.3
20200331072650 30 55 1.0 4.0 0.00 0.16 0.00 96 1016.3
20200331072151 30 60 1.0 4.0 0.00 0.16 0.00 96 1016.3
20200331071151 31 58 0.0 3.0 0.00 0.16 0.00 96 1016.2
20200331070150 31 56 1.0 4.0 0.00 0.16 0.00 96 1016.2
20200331065650 31 56 1.0 3.0 0.00 0.16 0.00 96 1016.3
20200331064650 31 57 1.0 4.0 0.00 0.16 0.00 96 1016.3
20200331063650 31 58 1.0 3.0 0.00 0.16 0.00 96 1016.3
20200331062650 31 60 1.0 4.0 0.00 0.16 0.00 96 1016.3
20200331062150 31 61 1.0 4.0 0.00 0.16 0.00 96 1016.3
20200331061650 31 60 1.0 4.0 0.00 0.16 0.00 96 1016.3
20200331060650 31 55 0.0 2.0 0.00 0.16 0.00 96 1016.4
20200331055650 31 58 2.0 5.0 0.00 0.16 0.00 96 1016.3
20200331054149 31 56 1.0 5.0 0.00 0.16 0.00 96 1016.2
20200331053650 32 60 1.0 5.0 0.00 0.16 0.00 96 1016.1
20200331052649 32 50 2.0 4.0 0.00 0.16 0.00 96 1016.1
20200331052150 32 49 1.0 4.0 0.00 0.16 0.00 96 1016.1
20200331051150 32 39 0.0 2.0 0.00 0.16 0.00 96 1016.1
20200331050650 32 40 0.0 2.0 0.00 0.16 0.00 96 1016.0